Theta_e
341 344 347 352 353 352 352 352 351 352 354 356 356 356 356 355 355 353 351 351 353 353 352 352 352 353 352 352 352 351 352 352 351 351 351 350 350 350 349 349 349 348 348 348 347 346 342 340 342 343 346 348 348 347 347 347 347 347 345 345 345 345 345 346 346 346 347 347 345 346 346 347 347 347 348 348 348 348 346 346 346 344 343 345 346
341 345 347 349 353 353 352 352 352 352 353 355 355 356 356 355 355 354 352 352 352 353 353 353 353 352 352 353 352 352 351 352 351 351 351 351 350 349 349 349 349 348 347 346 345 344 344 341 340 342 343 344 346 347 347 347 346 345 344 344 344 345 345 346 346 346 346 347 346 346 348 347 347 346 347 347 348 348 346 346 345 342 341 345 345
344 345 347 349 352 353 352 351 352 353 353 353 354 356 355 355 355 354 353 353 353 353 353 353 352 352 352 352 352 352 351 351 351 351 351 350 349 350 350 349 349 348 346 345 344 343 343 342 339 338 342 344 346 347 347 346 345 344 344 343 343 344 345 345 345 345 346 347 346 347 348 347 347 346 347 348 348 348 346 346 345 343 340 344 343
343 344 347 350 352 352 352 352 352 352 352 353 354 354 354 354 354 354 354 353 353 353 353 352 352 352 352 352 352 352 352 351 350 350 350 349 349 349 349 349 349 346 345 343 342 342 341 341 340 339 341 344 343 346 345 344 343 344 343 342 342 343 343 344 345 345 345 345 346 347 344 342 345 346 347 348 348 347 346 345 345 345 344 343 343
343 344 347 350 350 351 352 353 352 352 352 352 353 354 353 353 354 354 354 354 353 354 353 352 352 353 352 352 352 352 351 351 350 349 349 349 349 349 350 349 348 345 344 343 341 340 340 339 340 339 340 342 343 344 345 344 343 342 342 341 341 342 342 343 344 345 346 346 345 345 342 343 342 346 347 347 348 346 345 344 343 343 343 342 341
343 345 347 348 348 350 352 352 352 351 351 351 352 353 353 353 353 354 353 354 354 353 352 352 352 352 352 352 351 351 351 350 350 349 349 349 349 349 349 349 348 345 344 343 341 340 338 337 336 337 340 340 343 344 344 344 343 342 341 341 341 341 342 343 344 344 344 345 346 342 342 342 343 344 348 347 347 346 345 345 343 343 342 340 339
344 345 345 345 347 349 351 351 352 351 351 351 351 351 352 352 353 353 353 353 354 353 352 352 352 352 351 352 350 350 350 350 349 349 348 349 349 348 348 348 348 346 345 343 342 340 338 336 335 335 338 342 343 343 343 344 343 342 341 340 340 341 342 342 344 345 345 345 341 341 341 342 343 344 347 346 347 346 344 345 344 342 340 340 339
344 345 344 343 344 349 350 351 351 350 350 350 350 351 351 352 352 353 353 353 353 353 352 352 352 351 351 351 350 350 350 349 349 349 349 349 348 348 348 348 347 346 345 343 343 341 338 336 334 335 338 340 342 343 344 344 342 342 341 340 340 341 342 343 344 345 343 344 341 342 341 342 343 344 347 347 347 346 345 344 342 340 340 338 336
342 343 344 344 344 348 349 349 350 350 350 350 350 350 351 351 352 353 353 353 353 353 353 352 351 351 351 351 351 350 349 349 349 349 349 348 348 348 348 347 347 346 344 344 343 341 339 336 335 336 338 339 343 344 343 343 342 341 340 340 339 340 342 342 343 342 343 342 344 343 342 342 343 343 345 346 346 344 342 341 342 341 340 337 336
341 343 343 344 346 348 347 348 349 349 350 350 350 350 351 351 351 352 353 354 353 353 352 352 351 351 351 350 350 349 349 349 349 349 348 348 348 347 348 347 346 345 344 344 343 341 339 336 335 337 337 339 344 344 343 342 342 340 340 340 339 340 341 342 341 341 344 341 342 344 343 345 343 343 345 345 344 344 343 341 340 338 338 337 335
340 341 342 345 346 346 346 348 349 349 349 349 349 350 350 351 351 352 353 353 353 352 352 351 351 350 350 350 350 349 350 349 348 347 348 348 347 347 346 345 345 344 344 343 343 341 339 336 336 336 337 338 343 342 341 342 341 341 339 339 338 339 340 341 340 342 345 342 343 342 346 346 341 341 344 343 342 342 341 340 340 338 337 335 333
340 341 342 346 347 345 345 346 347 348 348 348 348 349 350 352 352 352 353 353 352 352 352 351 351 350 350 349 349 350 350 348 348 348 348 347 347 346 345 345 345 344 343 343 343 341 339 337 335 336 336 337 336 343 342 340 341 340 338 338 339 338 340 339 337 341 344 343 342 341 343 343 342 343 343 342 341 341 340 339 338 337 337 333 335
340 340 345 345 344 344 344 345 346 347 348 349 349 349 351 351 352 352 352 352 352 351 352 351 351 350 349 349 349 349 350 349 347 348 348 347 347 345 345 345 344 343 344 344 343 340 339 337 335 334 334 336 336 341 341 341 341 339 338 337 336 338 338 337 338 341 342 342 342 341 341 341 341 344 341 341 342 342 342 340 339 337 335 335 334
341 345 345 344 344 347 343 344 344 345 346 347 348 350 350 351 351 351 351 351 351 351 351 350 350 350 349 349 349 349 349 348 348 348 348 347 346 346 345 344 343 343 345 344 342 340 339 337 336 335 334 334 335 337 339 340 340 339 339 338 337 338 334 334 338 340 340 342 341 340 341 341 339 342 341 343 343 343 341 339 338 336 334 332 332
344 345 344 344 344 344 346 342 343 343 344 345 346 349 350 351 351 351 351 351 350 350 350 349 350 349 349 349 349 349 349 348 348 347 346 346 347 347 345 343 342 343 344 343 342 340 339 338 337 336 334 333 333 336 339 340 340 339 338 337 335 335 331 332 337 337 341 341 342 343 341 340 343 343 343 343 341 342 340 338 337 335 333 332 335
346 345 345 343 343 344 344 345 341 341 342 342 343 346 348 350 350 350 350 350 349 349 349 349 349 348 349 348 348 348 348 348 348 346 344 345 346 346 345 344 342 343 343 343 341 340 337 335 336 335 335 334 333 335 338 339 339 338 337 335 333 333 332 330 335 337 337 340 342 341 341 341 344 344 343 342 341 341 340 338 337 336 333 334 334
346 345 344 343 343 342 343 344 342 340 339 340 340 343 346 348 348 348 349 349 349 348 348 349 348 348 347 347 347 347 348 348 347 345 344 344 345 344 344 344 343 342 343 343 341 339 336 334 334 335 336 336 334 335 337 339 339 338 336 334 332 331 330 329 336 335 336 339 341 340 340 340 343 344 343 343 341 339 339 338 337 336 333 333 334
343 346 344 343 342 341 342 343 342 341 341 339 338 341 343 345 345 346 347 347 348 347 346 347 347 347 346 346 346 347 347 347 346 344 342 341 341 341 342 343 343 343 343 343 341 338 336 334 334 335 337 337 335 335 337 338 339 337 334 331 329 330 329 327 333 335 336 342 339 340 340 343 344 343 343 342 341 340 339 338 338 336 334 333 333
339 343 344 342 341 340 342 343 343 341 341 340 340 340 340 341 342 343 344 345 345 344 343 344 344 344 344 344 346 346 344 344 343 341 340 340 340 339 339 340 344 344 343 342 340 338 336 335 337 336 337 338 337 335 337 339 338 335 331 329 328 328 327 327 333 337 337 336 338 339 341 344 344 343 343 343 341 340 338 338 337 336 334 333 333
337 339 342 341 340 339 340 342 343 341 340 338 340 341 337 338 339 340 341 342 342 341 340 340 341 340 340 340 341 342 342 341 341 339 338 338 339 337 337 338 341 344 344 343 341 340 337 337 338 337 336 339 338 335 340 339 336 332 329 328 327 326 328 332 333 336 337 337 338 340 343 344 344 344 343 343 342 340 338 338 337 335 333 334 333
339 336 339 341 339 339 340 340 342 341 340 338 339 340 340 337 337 337 337 338 339 338 336 335 335 334 335 335 339 341 340 340 339 338 337 337 334 334 335 335 337 341 344 343 342 341 340 339 338 336 336 339 339 338 338 338 335 330 327 325 325 326 330 332 335 335 336 336 339 340 343 342 343 343 343 343 343 341 340 338 337 336 333 334 333
333 333 336 341 340 339 341 342 341 341 341 341 340 340 341 339 341 339 339 338 337 336 337 340 344 340 333 337 340 340 338 338 339 342 336 337 333 331 332 333 335 338 342 343 342 342 342 340 339 337 339 340 337 332 332 334 333 330 326 323 323 328 330 331 333 334 334 335 339 340 343 343 343 343 342 343 342 343 342 341 338 336 334 334 333
331 332 333 337 340 340 341 343 342 342 341 342 341 340 340 340 340 340 339 337 342 341 341 342 341 339 340 340 338 336 336 335 337 339 339 332 336 329 330 331 332 335 339 341 341 341 341 342 340 341 340 337 333 329 331 329 327 328 324 321 323 326 328 329 332 332 333 335 339 340 342 343 343 342 342 342 342 342 341 340 339 337 335 335 334
331 331 331 336 336 340 340 340 342 341 343 343 342 340 341 340 338 339 338 337 339 341 341 341 340 339 341 338 337 336 336 335 342 343 343 337 335 329 329 329 330 332 335 338 337 338 338 339 339 339 337 334 331 329 327 329 328 325 324 324 324 325 326 328 329 331 333 337 337 338 342 341 342 341 342 342 342 343 341 340 340 338 335 335 334
332 332 332 334 335 337 341 341 341 341 343 343 343 342 342 339 338 338 338 338 338 339 339 339 339 338 340 338 337 335 336 336 336 337 337 336 335 333 331 331 332 331 328 334 336 337 336 335 333 335 334 333 331 328 328 328 328 328 326 325 325 325 326 327 328 328 332 336 335 336 339 340 341 341 341 342 342 341 341 340 340 338 335 334 334
333 331 331 333 334 335 337 340 342 341 340 340 342 343 343 339 337 337 338 338 338 338 338 338 338 338 339 337 335 334 336 335 336 337 336 336 336 335 334 334 334 333 332 333 332 334 335 334 334 334 332 331 330 329 327 327 327 328 326 325 325 325 325 326 327 327 329 333 333 332 335 336 339 340 341 341 341 341 342 341 340 339 337 336 334
331 332 333 332 335 334 336 337 341 342 342 341 341 341 343 342 339 338 337 336 337 337 337 338 338 339 339 338 336 335 335 335 335 337 336 336 335 336 336 335 334 333 334 332 331 331 334 331 330 333 332 330 329 329 327 327 326 326 326 326 326 326 325 326 325 326 326 329 330 328 332 334 334 337 338 340 341 341 341 341 340 340 338 336 335
331 332 333 334 334 334 335 336 337 339 341 342 341 340 341 343 342 339 338 337 337 337 337 337 339 339 339 340 337 336 336 335 335 337 337 337 335 336 336 334 334 333 334 331 330 330 331 330 330 331 331 330 330 329 327 326 327 327 326 325 326 326 325 325 325 325 325 326 330 324 328 331 332 335 337 339 341 341 341 342 340 340 339 338 336
330 332 332 334 335 336 335 336 337 337 338 341 340 340 340 340 340 341 340 337 339 339 339 339 338 340 340 340 339 338 337 336 335 336 337 337 335 335 335 335 335 334 333 331 330 331 330 330 329 329 331 330 329 329 327 326 326 326 325 325 325 325 325 325 325 325 325 325 330 326 324 327 331 333 335 337 340 341 341 341 342 340 340 339 337
330 331 332 332 336 336 335 335 336 337 337 338 339 339 339 339 339 340 341 339 340 341 341 340 340 340 340 341 340 340 338 337 336 336 337 337 336 336 336 335 335 335 334 332 331 331 331 330 329 329 330 331 330 330 327 326 326 326 326 326 326 327 325 326 326 325 325 326 325 329 322 325 328 330 333 335 338 340 341 342 341 341 341 340 338
331 331 332 333 335 336 336 337 338 337 338 337 336 337 338 337 339 339 341 340 341 341 341 342 341 340 340 341 342 340 339 338 338 337 337 337 337 336 335 336 335 335 334 333 333 332 332 331 331 329 330 330 330 330 328 326 326 326 325 326 326 327 327 326 327 327 326 327 327 328 323 322 325 328 331 334 336 339 340 340 341 341 340 340 339
328 329 331 333 333 336 336 337 338 339 337 337 336 336 337 336 337 338 339 340 341 340 341 342 340 342 342 342 342 342 340 340 339 338 337 337 337 338 336 336 335 335 334 334 333 332 332 332 332 331 330 330 329 329 328 325 325 326 326 325 325 325 325 327 327 327 328 328 327 327 326 323 322 324 328 331 334 336 338 339 340 341 342 341 340
325 328 330 330 331 332 334 336 337 337 337 337 337 337 337 337 337 336 338 339 339 339 340 340 341 342 342 343 342 343 341 340 340 339 337 337 336 337 336 336 336 336 335 334 333 333 332 331 331 332 331 330 329 328 328 326 325 325 326 326 326 326 326 326 327 328 327 328 328 327 328 325 324 322 323 326 329 334 337 339 340 340 341 341 340
322 325 328 330 331 333 334 333 334 336 337 337 336 336 337 337 336 336 336 337 337 337 337 338 339 341 342 342 341 341 339 340 340 339 339 337 337 337 337 337 337 337 336 335 333 332 331 331 331 331 329 330 329 328 327 326 325 325 325 326 326 326 326 326 326 327 327 327 328 327 327 328 326 323 322 322 325 328 332 336 339 340 339 340 340
312 313 320 326 328 330 332 332 330 330 331 334 334 334 333 334 333 333 334 335 336 336 337 338 338 338 339 342 342 341 341 341 341 340 339 338 337 336 337 338 338 337 336 335 334 334 332 331 330 329 330 329 329 330 328 326 325 325 325 326 325 326 326 326 326 326 327 327 328 327 328 327 327 326 324 323 322 323 326 330 334 339 339 339 340
312 312 313 320 324 327 328 327 328 330 331 331 332 333 333 333 333 331 333 332 333 335 334 337 338 337 336 337 342 342 341 341 341 341 339 338 337 337 337 338 338 336 335 334 334 333 333 332 331 330 327 328 329 329 330 328 328 327 325 325 325 325 325 326 326 327 327 328 328 327 327 327 326 327 324 326 324 322 323 326 330 335 338 339 339
311 313 311 311 315 320 324 325 325 327 329 331 331 331 332 332 332 332 331 331 333 332 332 334 335 336 336 334 336 341 341 341 341 341 340 339 338 337 337 338 338 337 336 334 333 333 333 333 331 331 330 327 328 328 328 329 328 328 327 326 327 325 326 327 327 328 329 328 328 328 328 327 327 322 325 326 326 325 322 321 325 330 332 334 336
310 310 311 310 310 313 316 319 323 325 327 328 329 331 331 330 330 332 329 331 332 332 332 332 332 331 332 333 335 335 339 341 341 341 340 340 339 338 338 338 337 336 335 335 333 333 333 332 331 331 331 329 328 328 327 328 328 328 328 328 328 327 328 329 329 325 328 327 327 328 328 327 328 329 328 328 327 326 326 322 322 323 325 327 330
307 307 308 309 309 309 311 314 316 319 322 324 324 326 328 329 329 330 329 330 331 331 331 330 331 331 330 331 332 334 335 339 340 340 339 339 338 338 337 338 337 337 335 334 334 333 332 332 331 331 331 331 329 329 329 328 328 328 327 327 328 328 328 328 328 329 329 328 328 328 330 329 329 329 329 329 328 329 328 327 323 323 323 322 325
307 307 306 307 307 307 307 309 313 316 317 317 319 321 325 326 327 327 328 328 329 329 330 330 331 330 331 330 331 332 334 336 338 339 339 338 337 337 336 337 337 336 335 334 333 333 332 331 331 331 330 330 329 329 329 327 326 327 325 326 327 327 327 326 327 328 328 329 329 330 329 330 329 329 329 329 329 329 329 328 325 324 324 323 321
305 307 306 305 305 305 306 305 307 311 313 313 314 317 318 319 323 325 325 327 328 329 329 330 330 331 330 331 330 331 332 334 337 338 338 335 337 336 336 336 336 335 334 334 334 334 334 333 331 330 330 328 328 328 328 328 325 322 324 326 328 328 327 326 327 327 328 328 329 329 329 329 329 328 327 327 326 326 326 327 326 327 327 327 325
302 302 303 305 306 305 304 304 306 306 309 311 310 312 316 318 319 321 324 325 326 326 327 329 330 331 330 330 330 330 331 331 332 337 337 337 335 335 336 336 335 334 334 333 333 331 333 333 332 330 331 329 328 329 328 328 323 323 321 320 323 326 327 326 326 327 328 328 328 327 327 327 327 327 327 326 326 326 326 327 328 327 327 327 327
302 301 302 302 301 302 303 304 304 304 304 306 308 308 309 313 316 315 319 321 324 326 327 328 328 329 329 329 330 331 331 331 331 330 333 333 333 333 333 335 335 334 332 332 332 331 333 333 332 330 329 330 329 330 329 329 324 325 324 318 317 317 318 321 324 326 327 327 327 326 326 326 327 327 326 325 325 325 326 327 328 328 327 326 326
299 299 299 299 300 300 300 302 302 302 303 303 304 306 308 308 308 311 314 315 318 322 325 325 326 326 327 329 330 331 331 331 331 330 330 330 331 331 331 331 333 334 333 332 331 331 332 332 332 331 330 326 327 326 329 329 327 323 317 319 316 313 310 314 320 324 327 326 326 326 326 326 326 327 326 324 323 323 325 327 328 328 326 326 326
298 298 298 299 301 299 299 299 299 300 302 302 303 303 304 304 307 307 306 308 310 311 312 320 323 324 326 327 329 330 330 330 330 331 330 330 330 330 330 330 330 331 333 333 332 332 332 332 332 332 330 329 326 326 326 329 328 328 322 313 311 311 311 308 315 316 321 323 324 326 325 325 325 325 325 325 323 323 324 325 326 326 325 325 326
297 298 299 300 299 299 300 300 300 300 300 301 302 303 302 302 303 303 302 302 303 305 308 309 317 322 323 325 327 329 329 329 330 330 331 329 330 330 330 329 329 330 330 332 333 332 332 332 332 333 332 331 328 326 325 325 328 327 326 322 316 310 307 307 309 304 314 320 321 323 324 323 324 323 323 321 321 322 323 323 323 325 324 325 326
296 297 298 298 298 299 300 300 300 300 302 302 302 303 301 301 301 302 302 302 302 305 307 308 310 316 322 322 325 327 328 328 328 329 330 330 330 330 330 330 329 330 330 330 330 332 332 332 332 332 332 330 329 325 325 324 326 327 326 325 323 320 315 311 306 305 303 307 312 315 320 321 321 319 318 319 318 320 322 323 323 324 322 322 322
295 296 296 297 297 298 298 299 300 301 301 302 301 302 301 301 300 300 302 302 302 302 303 306 308 310 312 317 321 323 326 327 327 327 328 329 328 329 330 330 329 329 329 330 330 329 330 331 331 332 332 331 330 328 326 326 324 324 326 325 323 322 319 316 312 311 305 303 304 307 309 312 314 316 317 318 319 319 320 321 321 320 318 319 319
296 295 295 295 296 296 297 297 298 299 300 301 301 301 301 301 301 301 300 302 302 303 304 304 304 305 307 310 314 319 322 324 325 326 326 327 326 327 328 329 329 329 327 330 331 331 329 330 330 331 331 331 331 330 328 326 326 324 324 324 323 321 320 319 317 315 312 306 306 308 308 308 310 311 316 318 319 320 320 320 320 319 319 319 319
296 296 295 295 295 294 295 295 295 297 298 299 300 301 301 301 300 300 301 301 301 302 302 303 303 303 303 305 309 312 317 319 321 323 324 325 326 325 326 327 328 329 327 328 329 330 331 332 332 332 332 331 331 330 329 328 327 326 326 324 322 320 318 317 317 316 314 313 310 304 305 308 308 309 313 314 317 317 319 319 318 315 315 317 318
295 295 296 295 295 295 294 293 294 295 295 297 298 299 300 301 300 300 300 300 301 301 301 301 302 302 303 303 305 309 312 316 319 320 321 323 324 324 324 326 327 326 326 328 328 328 330 330 331 332 331 331 330 329 326 327 327 325 324 323 322 320 318 315 316 316 315 311 309 310 308 306 308 306 307 314 315 316 317 318 317 316 315 314 316
Wind_Speed
11 14 14 18 18 19 19 18 18 17 15 14 15 15 15 15 15 14 15 16 16 15 14 14 14 14 14 14 15 15 14 14 14 14 14 14 14 14 14 14 14 13 13 14 13 12 11 11 11 10 12 13 15 14 13 13 15 14 14 13 13 13 13 12 11 10 9 9 11 10 9 10 12 14 15 16 15 12 9 14 12 10 8 11 17
15 14 12 14 18 17 18 18 18 17 16 14 14 15 15 15 15 15 14 15 15 15 14 13 13 14 14 14 15 14 15 14 14 14 14 14 14 14 14 14 14 13 13 13 12 11 11 10 10 10 10 11 12 13 13 13 13 12 12 12 12 11 11 11 11 10 9 8 10 10 8 10 11 12 13 14 14 14 11 14 14 7 5 14 15
14 14 12 14 18 17 17 18 18 17 16 14 14 14 14 14 14 14 14 14 14 14 14 13 13 14 14 15 15 15 14 14 14 14 14 14 14 15 14 14 14 13 13 12 12 10 9 9 8 8 9 10 11 11 13 13 12 11 12 11 11 10 10 9 9 9 8 8 8 9 8 11 12 11 12 13 14 14 12 14 13 12 9 15 14
15 12 12 14 17 16 16 18 18 17 17 14 13 13 13 13 14 15 14 14 14 13 13 13 13 13 14 15 16 16 15 14 13 14 14 14 14 14 14 15 14 14 13 12 11 10 9 8 8 7 8 10 10 11 12 11 11 11 11 11 10 9 9 8 8 8 8 5 4 3 3 5 7 11 12 14 15 14 11 14 14 14 15 15 16
14 12 12 12 12 14 16 16 18 17 17 16 13 13 13 13 14 14 14 14 14 13 13 13 13 13 14 15 15 15 15 15 14 14 14 14 14 14 15 14 14 14 13 12 11 10 9 8 8 7 7 10 10 10 12 11 10 10 10 10 9 8 8 8 7 6 6 4 2 5 4 5 4 11 12 14 14 14 12 14 13 13 14 14 13
13 12 12 12 12 12 16 15 16 17 16 16 14 12 13 13 14 14 14 14 13 13 13 13 13 13 14 14 15 15 15 15 15 15 14 14 13 14 14 14 14 13 12 12 11 10 9 8 6 6 8 9 9 10 11 10 10 10 9 9 8 8 8 7 6 6 5 6 7 5 5 5 5 7 14 13 14 12 12 12 13 13 13 13 12
15 11 12 12 10 11 16 16 15 17 16 16 15 13 13 13 12 14 14 13 13 13 13 13 13 14 13 14 14 15 15 15 14 14 14 13 13 13 14 14 13 13 12 11 10 9 9 7 5 5 7 11 9 9 10 9 9 9 9 8 8 7 7 7 5 5 4 4 3 5 5 5 5 5 13 13 14 13 13 14 14 13 12 12 13
11 11 11 10 9 12 15 16 16 17 17 17 16 14 13 13 13 12 13 13 13 12 13 13 13 14 13 14 15 15 15 14 14 14 14 13 13 13 13 13 12 12 11 11 10 9 8 7 5 5 8 10 9 9 9 9 9 9 8 8 7 7 7 6 6 5 2 2 2 4 5 5 5 4 11 13 13 12 13 14 14 12 11 12 11
11 11 11 10 10 16 15 14 15 17 17 17 15 15 14 12 13 13 11 12 12 12 12 13 13 14 15 15 15 15 15 15 14 13 13 13 13 13 12 12 12 11 11 11 10 9 8 7 6 7 8 10 9 9 9 8 8 8 8 7 7 7 8 9 8 7 1 2 3 3 6 5 4 4 9 12 12 13 14 13 12 13 13 13 11
11 10 10 9 11 15 15 14 14 16 17 16 15 15 15 13 12 11 11 10 10 11 11 12 11 13 14 15 16 15 15 14 14 13 13 13 13 12 12 12 11 10 11 10 10 10 9 7 7 8 8 10 10 9 8 8 8 7 7 7 7 8 8 8 8 5 4 3 3 4 4 8 4 4 8 10 12 16 17 16 9 8 9 12 11
12 10 8 10 14 15 15 14 14 15 16 16 15 15 15 14 11 9 9 9 9 10 11 13 13 13 14 15 15 15 13 13 13 13 13 13 12 11 10 10 10 10 10 10 10 10 9 9 8 8 8 8 10 8 8 7 7 7 7 6 6 8 8 8 7 5 4 3 3 5 6 9 5 4 10 12 14 16 14 12 10 11 11 9 8
11 9 8 10 15 15 14 14 13 14 15 15 15 14 14 12 10 9 9 9 8 10 12 13 13 13 13 15 14 13 12 13 12 12 12 12 11 10 10 10 10 10 10 10 11 10 9 9 9 8 8 7 7 9 8 7 7 6 6 6 5 8 8 9 4 7 3 0 4 5 5 5 6 6 12 12 14 14 13 11 11 11 9 8 11
11 9 11 12 11 14 13 13 13 12 13 14 13 13 11 10 10 10 9 10 10 11 12 13 13 14 14 14 13 11 12 12 12 12 11 11 10 10 10 10 10 9 10 11 11 10 9 9 9 7 7 7 6 8 8 6 6 5 5 5 5 7 8 11 2 6 4 3 5 5 4 4 5 11 11 12 12 13 12 12 12 11 10 9 10
10 12 11 11 9 13 12 12 12 12 11 12 12 12 11 10 11 11 11 11 11 10 11 12 13 14 13 13 12 11 11 11 11 10 10 11 10 10 10 9 9 9 10 10 10 10 9 9 8 7 6 6 6 5 5 5 5 5 4 4 5 7 8 6 4 5 4 4 5 4 3 4 3 12 11 11 11 11 10 11 12 11 8 8 9
14 13 11 10 10 10 12 11 11 11 11 10 11 12 12 11 10 11 11 11 12 12 11 12 12 12 12 11 11 11 11 11 10 9 9 10 9 9 9 8 8 9 9 9 9 9 9 8 8 7 5 5 5 5 5 5 5 4 4 4 5 6 7 4 4 4 5 4 3 5 4 4 8 11 10 9 8 10 10 11 12 12 11 9 12
15 14 12 10 10 9 8 11 10 10 9 8 9 11 11 11 11 11 11 11 12 12 10 11 13 13 12 11 11 11 11 10 9 8 7 8 9 8 7 7 8 9 8 9 9 8 7 6 7 6 7 5 4 5 4 4 4 4 4 3 5 6 5 4 4 3 3 5 4 3 4 4 11 9 9 9 8 10 10 9 11 13 10 11 11
13 13 13 12 10 9 8 7 7 10 8 8 7 10 10 10 11 10 10 10 11 10 10 10 11 11 11 10 10 10 10 9 9 8 7 7 8 7 6 5 8 9 8 8 8 8 7 6 6 6 7 6 5 4 4 5 5 5 3 2 5 7 6 6 3 0 2 5 6 5 4 3 8 9 8 8 9 6 9 10 12 11 10 11 11
11 12 12 12 11 10 9 7 7 6 5 5 6 8 9 10 10 10 10 10 10 10 10 10 10 10 9 10 10 9 9 8 8 8 7 7 7 7 5 5 7 9 9 8 8 8 7 6 6 6 7 6 5 4 4 6 6 6 3 2 4 8 7 7 4 1 2 4 4 4 4 5 8 8 8 7 7 8 8 9 11 10 10 11 10
5 11 11 12 12 10 10 8 8 7 6 4 4 4 8 9 9 9 9 9 9 10 9 8 9 9 9 9 9 9 7 7 7 7 6 7 7 7 6 5 4 8 9 9 8 7 7 5 5 6 7 7 5 5 5 7 6 6 4 1 4 8 10 5 3 1 1 2 2 4 5 9 8 8 8 7 5 6 7 8 9 9 9 10 11
4 7 10 9 10 10 9 9 9 8 7 5 5 5 7 8 8 8 8 9 9 9 9 9 9 8 8 8 8 7 6 5 7 5 6 6 7 5 6 5 4 4 9 8 7 6 6 5 4 4 7 7 5 5 6 7 7 6 5 3 3 7 5 3 4 2 2 2 5 4 5 10 8 7 6 7 6 6 7 8 10 8 9 11 10
2 5 7 9 10 9 10 8 9 8 9 7 7 6 7 9 7 8 8 8 8 8 9 9 9 8 8 8 8 5 4 4 4 3 6 4 6 6 7 6 5 3 6 7 6 5 5 4 4 5 6 6 4 5 6 6 6 7 6 4 3 3 4 4 5 2 2 2 4 5 9 8 8 6 5 5 6 5 5 7 8 10 9 11 10
4 4 5 9 9 9 10 9 9 9 9 7 6 6 6 8 6 5 5 6 6 6 6 5 6 5 7 6 4 4 5 5 6 5 5 4 6 6 7 6 5 4 4 6 6 6 5 5 5 6 6 5 5 3 3 4 5 6 6 4 3 4 5 5 3 1 3 3 5 5 8 7 6 5 5 5 5 7 6 5 6 11 11 11 10
4 3 5 7 7 7 10 10 10 9 10 8 7 7 9 7 7 6 5 7 6 7 5 5 4 4 5 5 4 4 4 5 6 7 6 9 7 8 7 6 6 5 4 5 5 6 5 5 6 6 6 6 4 3 4 4 3 5 4 3 3 5 6 5 4 3 1 4 4 7 6 7 5 3 4 5 4 6 7 8 7 12 11 11 11
4 5 5 5 7 7 7 9 11 10 9 7 7 7 8 8 7 7 6 6 6 6 6 6 6 5 6 5 5 5 7 6 9 15 11 8 8 11 11 8 6 5 5 3 4 5 5 6 7 7 5 3 3 5 4 5 5 4 3 4 3 5 6 6 1 1 3 5 5 8 7 6 5 4 4 6 5 5 9 7 8 12 11 11 10
6 5 4 4 6 6 8 7 8 10 10 8 7 7 8 7 7 7 7 7 7 7 6 7 6 7 8 7 8 6 6 6 6 7 6 6 6 5 6 5 4 3 3 3 4 3 4 4 3 4 4 4 5 5 4 6 6 5 5 4 5 5 6 4 1 1 1 5 6 9 7 6 4 4 5 6 6 6 8 12 11 12 12 10 10
4 5 5 5 5 6 7 7 7 7 9 8 8 7 9 8 7 7 7 7 7 8 7 7 7 8 6 7 7 7 6 7 5 7 6 6 6 6 6 6 6 5 5 5 4 5 5 5 5 5 5 5 6 6 4 6 6 6 6 5 6 6 7 3 3 3 2 4 6 11 9 6 5 4 5 6 6 6 7 14 13 13 13 12 12
6 5 4 4 5 4 5 6 8 7 8 7 7 8 8 7 8 8 8 8 7 7 8 7 8 8 8 8 7 6 6 6 5 7 7 6 6 7 7 6 6 6 7 6 6 5 6 6 5 6 6 5 5 6 5 2 3 3 4 5 6 6 4 4 3 4 4 2 5 9 7 6 4 4 4 5 6 6 7 12 15 14 14 13 12
5 5 5 4 4 4 4 4 5 8 8 6 5 6 8 9 8 8 9 9 9 9 8 8 8 9 9 8 8 7 7 7 6 7 7 6 6 6 7 7 7 7 7 7 7 6 6 6 6 6 6 6 5 6 5 3 1 0 3 2 2 4 3 3 4 4 3 3 5 5 7 6 6 5 6 6 6 7 8 11 15 15 17 15 14
5 6 5 6 5 5 3 3 2 4 6 8 6 5 5 7 8 8 8 8 8 8 9 9 8 8 9 9 8 7 7 7 6 6 7 7 6 6 7 7 7 7 7 7 7 7 6 7 6 6 6 6 6 4 4 4 4 3 2 3 4 3 3 3 3 3 4 3 6 6 10 9 7 8 8 7 7 8 9 10 14 15 17 16 16
2 3 4 4 5 5 4 3 3 3 3 6 6 5 5 6 6 7 7 7 7 7 8 8 8 9 9 9 9 8 7 7 7 5 7 8 7 6 7 7 7 7 7 8 7 8 7 7 7 5 7 7 6 5 5 4 4 4 5 5 4 4 3 3 4 3 3 4 3 5 9 9 9 9 9 9 9 9 10 10 11 14 16 18 17
1 1 2 3 6 8 6 4 4 4 2 3 4 6 6 6 6 6 6 7 7 7 7 7 7 7 7 10 9 9 7 7 7 6 6 7 7 6 6 7 6 7 7 8 7 6 7 7 7 7 6 6 6 5 6 5 5 5 5 6 5 5 4 3 4 4 4 3 5 5 7 10 11 11 12 11 10 10 10 10 11 12 16 20 19
1 2 1 1 3 8 7 6 5 4 3 3 2 3 4 4 5 6 6 6 7 7 6 7 7 6 6 7 8 8 8 7 7 6 6 7 7 7 6 6 7 7 6 7 7 6 5 6 6 6 5 5 6 6 6 6 5 6 5 4 4 3 3 4 5 4 4 5 5 5 6 6 11 12 13 12 11 11 10 11 12 13 14 18 20
3 3 3 3 2 4 7 7 6 5 5 4 3 3 3 3 4 4 5 5 6 6 6 6 6 6 6 6 6 7 9 8 7 7 6 6 6 6 4 5 7 7 6 6 7 6 5 6 6 5 5 5 4 4 5 6 6 6 6 5 5 4 4 4 4 5 4 4 5 4 6 6 7 10 12 11 11 11 11 11 12 12 14 17 20
1 1 3 4 2 2 3 4 6 8 7 5 4 4 4 5 5 6 4 5 6 6 6 5 6 6 7 7 7 5 5 6 5 6 6 6 7 7 7 7 6 6 6 6 7 6 6 6 6 5 5 6 5 3 4 6 6 6 6 6 6 6 6 6 5 5 4 5 5 4 4 6 6 6 7 11 12 12 13 12 12 13 14 16 19
3 3 3 2 3 3 3 3 3 4 5 6 6 6 4 4 5 5 6 4 4 5 5 5 6 6 6 7 8 7 8 8 7 6 6 6 7 6 7 7 6 4 5 6 6 6 6 7 6 6 5 5 5 6 4 3 3 6 6 6 7 6 6 6 6 6 6 6 6 5 6 6 6 6 6 5 10 14 13 13 13 13 15 16 18
0 0 0 1 2 3 3 3 3 4 4 5 5 6 6 4 4 4 5 4 4 5 5 5 6 5 6 6 9 9 8 7 7 6 6 7 7 7 6 6 6 3 6 6 6 6 6 6 6 6 6 6 6 7 6 5 5 4 2 1 2 6 6 6 5 4 5 5 6 5 6 6 6 7 8 6 6 8 16 15 15 14 14 14 16
1 0 1 1 0 2 3 4 4 4 4 4 5 5 5 5 5 4 3 3 4 6 6 5 5 6 6 6 5 9 9 9 9 8 8 8 8 7 6 6 6 6 5 6 7 6 6 7 6 7 7 6 7 7 7 7 6 6 3 4 4 1 3 4 4 4 4 6 5 5 5 6 6 6 6 7 7 6 11 16 14 15 15 15 15
1 3 3 3 3 2 3 4 4 4 4 5 4 5 5 4 4 5 4 4 4 4 6 5 5 6 6 6 6 6 9 10 10 9 9 9 9 9 8 7 6 6 8 6 7 6 7 8 8 8 8 7 7 7 8 7 7 6 6 7 6 4 4 4 4 4 5 6 6 6 6 5 5 6 5 5 5 6 6 11 16 16 16 16 16
4 5 5 4 4 4 3 4 5 5 5 4 4 4 4 4 4 4 5 5 4 5 6 6 6 5 5 5 7 7 8 10 11 10 10 9 9 9 9 9 9 9 9 8 8 8 8 7 8 7 6 7 7 7 7 6 6 6 6 7 6 6 6 6 6 6 6 7 6 6 5 6 5 4 5 5 5 5 5 5 6 7 9 15 15
4 4 4 4 4 3 3 3 4 5 4 4 3 4 4 6 6 5 6 6 6 6 6 6 6 6 6 7 7 7 8 9 10 11 11 10 9 8 8 8 9 9 9 9 9 8 10 10 8 8 8 7 6 5 6 6 5 6 7 6 6 7 7 6 6 7 6 6 6 6 6 5 5 5 4 4 5 5 5 4 4 6 6 10 15
1 2 4 4 4 4 3 4 4 3 4 4 4 4 5 5 5 7 8 7 7 7 7 6 7 7 7 7 7 7 7 9 11 11 11 10 9 8 8 7 8 9 9 10 10 9 9 8 8 7 9 8 7 6 6 7 6 4 4 6 6 6 7 7 9 8 8 8 7 7 7 7 7 6 6 5 5 5 4 5 5 5 6 6 8
1 1 1 2 2 2 3 4 3 4 4 5 5 5 4 5 5 6 6 6 7 8 8 8 8 6 6 6 6 6 7 7 7 9 9 9 8 8 8 9 8 8 9 9 9 9 10 9 7 7 7 10 8 8 6 7 5 6 5 3 5 5 8 9 9 9 9 9 9 8 8 8 9 8 7 7 7 7 6 6 6 6 6 6 6
3 5 8 8 6 3 2 2 3 4 4 4 4 5 4 4 5 4 5 5 5 6 6 6 6 6 7 7 7 8 8 8 7 6 7 8 8 9 9 8 9 8 8 8 9 10 10 11 11 10 8 7 7 7 9 9 7 6 5 3 5 4 4 6 6 9 10 9 8 9 9 8 9 7 6 6 7 7 6 6 7 7 7 7 6
7 7 7 6 6 7 6 7 5 3 3 4 4 4 4 4 4 4 4 4 4 4 6 6 6 7 9 10 9 8 9 9 8 5 5 5 7 8 8 8 8 8 9 10 10 12 11 10 10 11 10 9 8 8 9 10 8 7 5 7 3 3 5 6 9 9 10 10 9 9 7 7 6 6 5 6 6 6 6 6 8 7 7 7 6
6 5 4 4 4 5 6 6 6 6 6 5 5 4 5 4 4 6 5 5 5 6 4 5 7 6 8 8 10 7 8 8 8 7 6 7 7 7 8 8 8 8 9 10 11 12 12 12 13 12 13 12 10 7 7 10 11 9 7 4 1 3 6 3 5 6 6 8 10 10 9 9 9 8 7 8 7 6 6 5 5 4 5 5 4
6 5 4 4 4 5 5 6 5 5 6 6 6 5 4 4 4 4 6 6 7 5 8 7 5 7 8 5 7 8 8 8 8 8 8 7 8 8 7 8 9 8 7 8 9 10 12 13 13 13 14 14 10 9 9 7 10 11 11 8 7 5 3 2 1 5 1 6 6 9 10 10 9 8 8 7 6 5 4 4 4 5 4 5 5
5 5 4 4 4 4 4 4 5 5 5 5 6 6 4 4 5 5 5 6 6 6 5 6 7 6 5 7 7 7 9 10 9 9 9 9 9 10 10 10 10 9 9 9 9 11 11 12 11 13 13 12 11 11 11 8 7 10 10 9 8 4 3 2 4 1 3 1 3 5 7 7 8 7 7 5 4 4 4 5 6 7 6 5 5
4 4 4 4 4 4 4 3 4 5 5 5 6 5 5 4 5 5 6 6 6 6 5 5 6 7 7 6 6 7 9 10 11 11 11 10 10 11 11 11 10 10 9 11 13 11 10 9 11 12 11 11 13 13 11 9 12 9 11 10 10 7 5 4 4 4 3 1 3 1 1 3 5 6 6 6 5 5 5 6 7 6 6 5 4
3 4 4 4 4 5 4 4 5 4 5 6 6 7 6 5 5 5 5 5 6 7 6 7 7 5 5 7 7 7 8 9 11 11 11 12 11 10 11 11 11 11 10 9 11 12 13 13 13 13 13 12 12 13 12 12 11 10 9 9 8 8 7 7 5 5 6 4 7 5 5 2 2 4 5 6 6 6 7 7 7 6 6 5 4
3 3 3 2 3 4 4 5 5 4 5 5 6 6 6 6 6 6 6 6 5 5 5 7 8 7 8 7 6 7 7 8 9 10 10 11 11 11 11 12 13 12 11 11 9 10 12 13 14 14 13 14 11 12 14 11 11 11 12 10 11 8 6 6 6 7 6 9 11 6 6 7 7 5 5 6 6 7 7 7 7 4 4 5 4
4 3 4 3 3 3 3 4 4 4 5 5 5 5 6 6 6 6 7 7 6 7 8 7 5 6 8 9 8 7 7 7 7 9 11 11 11 11 12 12 12 11 10 10 12 11 10 9 10 13 14 15 12 12 11 10 8 9 10 10 11 11 11 10 10 9 9 8 7 11 7 5 7 4 4 7 7 7 7 7 7 5 4 4 4
Wind_Direction
144 140 146 157 157 158 156 153 153 152 149 142 142 143 144 147 146 144 143 142 139 141 141 141 140 137 137 139 139 138 133 133 129 126 123 123 120 119 118 114 114 116 116 112 111 110 102 104 111 104 106 99 88 85 78 74 70 67 67 64 64 67 72 74 76 80 76 78 92 87 91 90 91 93 96 96 89 86 89 85 81 76 76 78 78
139 138 147 154 156 158 158 156 152 152 150 147 145 142 144 147 148 146 145 145 144 143 145 144 143 141 141 143 140 137 137 135 132 128 129 127 124 120 115 117 120 121 116 113 110 109 109 105 106 113 102 95 90 88 85 80 73 72 66 64 62 61 63 71 77 75 78 81 92 90 83 96 97 99 99 92 89 90 89 87 83 81 78 78 77
126 138 146 154 154 158 158 154 153 152 151 150 148 141 142 146 148 148 147 146 145 146 146 147 146 143 144 145 142 140 137 136 135 134 135 131 125 121 120 122 122 118 114 113 109 109 109 105 105 105 111 104 100 95 91 85 80 74 70 63 59 58 59 64 74 77 75 81 91 88 83 99 103 102 102 95 94 94 93 94 90 84 82 83 80
131 139 144 151 152 154 154 155 155 154 153 151 148 141 141 144 151 150 146 147 147 147 148 149 146 145 146 146 144 142 141 139 140 139 135 129 127 125 124 127 127 120 115 112 110 105 103 103 100 106 108 105 102 99 96 92 83 78 72 63 57 52 55 59 61 67 68 37 59 35 82 83 98 102 101 101 100 98 95 94 93 91 87 83 83
132 139 142 147 150 152 153 154 156 156 155 155 150 142 143 146 149 152 149 146 148 149 149 148 147 145 146 145 145 144 143 142 144 141 136 132 128 127 129 131 128 121 117 112 106 101 98 96 99 103 116 110 109 109 97 96 89 80 72 66 53 48 45 52 53 55 39 52 69 74 85 91 94 104 102 102 97 92 91 87 81 79 81 80 78
134 137 143 150 150 150 152 151 154 157 159 156 152 145 144 146 149 149 149 149 148 150 150 150 148 146 144 145 145 145 144 145 146 144 138 134 129 132 133 133 128 122 118 113 107 104 94 92 93 103 111 113 111 108 101 97 91 82 73 61 51 37 33 38 39 28 50 57 79 95 93 90 89 104 111 108 100 95 95 93 90 89 84 75 70
133 136 147 150 147 152 152 151 152 159 160 158 154 148 146 147 148 149 150 149 149 150 152 153 150 147 145 144 145 147 146 146 147 143 140 134 138 136 133 134 130 124 120 115 110 102 96 88 99 116 117 116 120 114 105 97 90 81 71 61 43 31 19 20 22 16 30 55 67 93 90 96 99 111 122 111 106 99 97 94 86 78 76 79 78
129 140 149 147 147 154 152 152 154 158 160 159 153 152 151 149 149 148 149 151 150 150 153 152 152 145 147 147 150 150 147 151 145 141 137 140 138 135 137 139 134 127 124 117 111 105 100 93 97 126 122 121 123 115 103 98 89 81 71 56 38 15 8 0 359 2 10 125 49 89 100 97 106 95 112 107 104 101 93 84 80 76 77 85 80
134 141 143 143 142 151 151 152 154 157 158 155 150 154 155 153 152 151 150 151 154 154 154 155 154 152 152 151 152 154 152 150 145 141 142 139 139 141 139 136 140 140 127 123 117 111 103 100 99 117 125 122 122 112 102 95 87 80 69 55 28 6 357 353 350 350 321 106 84 68 101 100 100 104 114 113 111 103 90 78 71 78 80 80 77
137 142 142 135 141 149 148 148 151 156 155 152 151 154 155 156 155 152 152 150 156 157 156 151 155 152 154 154 154 157 153 150 144 146 144 143 146 145 144 148 144 131 134 129 125 118 109 102 107 115 121 127 118 110 107 96 85 75 68 48 21 0 354 347 343 327 98 99 99 73 100 117 104 110 111 110 100 92 90 88 89 83 82 84 92
136 143 141 126 141 146 147 148 149 152 151 150 153 155 155 154 156 151 148 150 156 154 152 153 158 155 157 157 156 156 152 143 148 147 146 145 145 144 145 142 131 136 131 133 131 123 116 108 108 117 123 129 116 114 104 95 86 77 61 47 14 355 348 340 335 84 64 113 101 83 78 105 94 104 120 108 100 96 96 99 100 98 94 91 91
139 137 130 124 138 143 146 146 147 149 150 151 154 154 153 152 148 145 143 145 152 154 151 154 159 156 158 156 157 149 141 146 151 150 149 145 145 146 145 140 138 137 139 133 131 128 123 115 111 119 127 133 112 110 109 99 85 72 63 41 13 340 340 331 353 93 90 71 104 94 84 93 113 125 119 113 108 108 108 106 100 94 94 99 96
133 129 112 130 137 141 144 146 145 149 152 154 153 152 147 142 140 139 139 140 145 155 150 156 157 157 157 155 153 145 141 147 147 150 149 141 144 145 144 146 145 146 139 137 136 133 129 124 114 115 123 127 108 123 106 103 89 75 60 44 4 332 346 337 24 90 96 71 70 63 81 100 124 133 123 119 120 117 115 110 104 102 106 108 103
123 108 127 129 135 139 142 143 145 149 153 155 149 142 140 137 138 134 133 138 144 148 152 158 156 159 153 154 148 144 144 148 148 151 147 147 145 147 147 151 153 143 143 142 142 139 135 131 125 114 116 111 105 104 108 106 96 79 63 39 347 336 347 329 335 97 96 61 90 95 85 89 128 134 130 130 129 119 112 107 112 112 107 94 98
112 119 118 126 134 139 138 139 143 148 152 153 142 138 141 138 138 134 132 137 151 156 157 155 154 152 153 152 148 147 148 149 149 149 147 147 146 147 152 154 148 149 152 152 150 146 144 141 133 128 114 102 99 117 127 118 107 83 61 28 334 332 349 339 325 85 112 98 76 118 133 147 160 137 137 138 129 121 121 116 119 124 119 113 111
118 118 121 127 136 138 137 147 139 144 148 146 140 135 140 141 139 139 139 140 151 155 156 151 154 158 154 151 150 151 151 149 146 140 140 141 143 151 152 161 162 155 161 160 156 152 152 147 142 140 131 118 108 114 144 145 122 100 73 32 317 323 330 334 301 86 122 126 131 163 140 155 151 144 143 142 136 135 133 130 130 127 122 119 121
122 124 126 135 137 140 140 147 141 143 141 137 134 137 138 140 139 142 145 145 149 150 156 153 154 155 150 146 148 150 149 146 141 138 140 139 137 139 146 162 168 164 167 165 162 160 154 153 153 149 145 139 131 135 154 155 134 114 88 16 331 316 320 336 316 36 72 115 151 151 155 167 146 149 149 151 151 146 138 144 136 131 131 129 128
121 124 130 139 140 149 143 143 140 144 144 131 127 139 141 143 142 140 144 148 152 151 156 161 152 152 151 144 148 151 146 138 142 141 142 141 138 136 142 150 169 167 169 171 171 167 165 162 158 157 157 154 142 155 160 165 130 114 99 357 319 309 309 335 308 303 83 108 130 127 142 159 158 156 157 170 151 149 144 141 141 138 139 141 134
127 129 136 143 145 153 147 142 151 153 152 156 137 141 140 143 144 138 142 147 147 148 148 153 153 152 150 142 145 144 149 135 133 136 138 147 147 144 142 147 164 169 171 178 178 176 174 174 163 167 164 168 159 161 169 138 133 119 129 189 303 302 307 317 295 40 69 122 109 121 137 156 165 165 163 172 168 163 158 152 149 148 150 145 138
139 130 140 142 148 151 148 149 158 164 157 168 162 148 148 143 145 140 145 146 141 144 145 143 143 142 140 145 140 141 139 127 132 132 137 152 154 153 153 146 125 158 172 178 180 182 183 177 170 176 171 175 173 168 156 144 137 144 150 178 265 299 292 263 276 186 204 154 118 120 147 161 155 149 157 174 179 183 166 167 161 157 156 148 149
167 142 138 140 151 153 150 154 162 168 158 169 166 165 160 150 148 148 147 150 148 146 146 146 139 141 142 147 145 152 150 137 146 152 144 152 170 164 162 159 149 144 174 173 178 185 189 162 175 184 172 171 166 157 147 148 147 156 163 172 237 265 260 260 250 210 147 86 101 129 158 177 161 169 178 163 189 194 196 195 179 166 164 156 163
170 155 145 142 157 158 155 158 164 176 161 167 161 166 160 161 160 156 154 153 155 154 153 158 159 148 153 149 157 174 171 174 164 174 164 161 175 171 175 168 159 161 174 177 180 187 184 166 172 175 162 150 139 140 155 158 156 166 160 173 211 244 260 263 226 259 125 118 113 141 150 157 163 178 199 184 185 208 210 244 212 172 174 168 168
167 173 163 155 157 160 159 162 166 179 163 169 156 165 158 171 174 169 169 165 168 180 173 178 177 168 168 163 179 184 200 182 173 180 169 175 172 177 176 176 168 165 176 178 183 189 184 173 173 168 152 146 161 209 177 167 153 153 170 207 235 245 261 267 207 200 129 114 122 147 149 162 178 191 213 211 210 204 220 215 245 178 180 176 175
171 177 172 172 158 160 173 166 168 174 165 174 158 161 161 170 174 171 171 174 175 179 185 188 181 187 175 180 181 195 200 194 176 178 186 174 178 178 175 175 170 174 179 173 185 190 189 180 176 159 146 162 197 221 204 176 169 183 198 209 228 253 259 263 214 182 154 112 128 152 152 171 191 212 236 239 228 214 202 225 238 189 191 185 202
164 173 162 183 169 169 172 182 166 171 169 171 162 162 157 165 174 170 172 172 177 179 192 188 188 192 175 185 186 198 189 204 175 173 175 169 162 165 167 168 165 179 177 199 179 191 181 177 170 156 171 188 220 231 201 182 176 180 194 203 220 243 259 265 317 296 175 135 146 154 154 153 174 205 233 251 252 239 217 211 215 195 198 202 210
148 165 181 176 191 183 172 173 174 173 175 169 170 161 152 170 174 175 171 173 178 177 188 187 189 192 182 189 190 191 190 199 165 166 176 170 165 165 173 177 172 183 173 199 210 184 186 193 175 183 207 205 209 228 222 180 184 176 189 197 216 231 241 218 248 275 261 162 155 156 161 153 164 200 224 242 245 236 213 205 213 207 208 211 206
162 183 184 172 181 194 182 169 172 175 182 178 169 154 173 174 177 177 175 176 178 181 185 190 189 187 191 185 189 193 193 199 183 165 177 182 178 168 172 179 184 186 175 181 203 199 179 195 189 186 205 225 208 216 230 160 170 184 193 198 209 228 221 192 199 223 250 117 159 159 150 154 172 197 234 241 242 241 222 213 213 216 214 214 208
163 183 177 181 172 192 189 181 180 171 177 189 181 177 167 174 183 180 183 180 177 184 188 192 189 191 192 189 191 192 190 196 193 173 178 190 192 177 169 175 182 190 173 178 189 200 181 190 196 185 197 221 219 207 191 163 147 347 309 293 265 241 251 212 196 210 207 154 155 175 160 177 193 212 225 237 239 236 228 216 217 220 217 217 212
183 175 176 175 171 176 193 211 227 190 169 175 187 187 188 180 178 184 190 185 185 185 187 188 195 191 192 193 191 197 193 193 197 179 176 192 195 183 176 177 184 191 167 181 186 192 188 182 198 192 189 207 224 203 169 165 166 188 224 263 269 283 275 279 255 222 201 188 162 189 182 183 191 212 228 234 237 237 238 230 222 224 222 221 218
185 154 160 162 151 158 180 212 229 243 199 169 188 180 189 201 182 183 185 184 198 192 187 191 194 191 191 195 193 197 195 191 195 189 176 189 199 191 180 181 185 190 174 180 194 187 184 179 193 199 182 197 207 197 164 171 181 187 195 219 227 244 265 258 268 257 220 202 183 176 197 186 192 207 226 235 234 237 236 239 234 222 222 223 221
141 162 153 160 155 163 177 193 228 247 255 206 186 192 187 191 197 186 179 189 197 195 199 198 200 198 191 189 194 195 198 191 189 192 185 185 196 198 185 180 189 197 182 184 195 198 179 173 185 196 191 192 193 185 174 179 191 195 201 199 207 201 230 265 257 247 239 216 209 170 190 193 194 204 218 226 234 238 241 240 243 240 226 223 224
165 197 154 178 124 165 165 180 200 230 257 265 216 210 205 196 190 186 193 190 190 206 199 195 201 203 196 192 193 197 199 196 189 189 189 183 188 198 191 186 194 200 193 183 186 194 188 185 184 188 196 189 187 179 177 180 198 205 199 200 185 182 213 232 252 256 232 221 217 184 176 195 205 206 213 221 225 231 238 242 248 249 244 222 220
203 186 170 150 215 151 160 173 182 208 220 227 237 223 221 216 214 197 192 190 194 194 209 206 200 198 190 196 212 209 199 194 191 187 183 181 187 198 204 215 199 198 195 187 178 185 189 184 197 191 194 192 185 187 176 186 197 207 197 202 183 197 216 237 235 246 256 239 229 209 170 185 196 210 216 218 227 233 231 234 240 247 249 235 226
116 134 136 164 156 102 123 158 177 191 206 216 220 220 220 218 213 209 204 194 200 196 202 203 198 196 187 193 194 198 249 248 184 188 186 184 193 198 196 214 211 196 195 186 183 182 187 183 192 192 201 186 193 203 187 197 202 198 197 196 187 196 196 218 238 238 243 250 236 229 212 174 184 190 207 221 223 225 235 241 239 238 239 241 236
28 33 51 82 116 137 147 184 187 195 192 205 214 224 225 223 214 213 211 202 202 205 199 198 206 198 186 190 189 194 199 209 214 195 196 194 193 190 196 199 205 211 213 192 185 187 184 189 185 191 198 198 194 207 208 214 208 207 206 193 197 196 192 202 214 230 234 236 224 223 222 215 178 185 194 196 217 223 228 232 239 243 236 236 242
161 318 238 152 178 164 167 188 189 198 206 213 219 222 227 234 234 224 219 203 201 209 215 203 199 211 203 186 185 190 196 205 204 199 198 201 200 199 199 188 193 194 227 215 181 193 198 195 193 186 191 202 192 205 199 215 228 240 274 307 208 192 194 200 214 236 247 244 237 219 220 221 212 188 181 191 192 210 216 223 230 236 239 238 242
129 355 335 337 259 209 177 187 217 226 227 217 217 223 226 230 237 243 233 206 199 210 223 218 205 206 210 197 175 182 193 197 204 206 209 203 205 202 199 191 193 191 214 204 191 190 193 203 202 196 189 187 189 192 196 200 207 221 235 259 269 227 202 206 214 231 255 262 255 246 229 229 232 228 198 181 187 198 209 215 222 228 234 235 234
181 184 203 208 221 211 203 195 199 213 228 241 227 221 230 235 242 247 250 235 217 213 223 221 222 216 201 198 200 177 184 197 199 201 208 210 207 204 200 198 188 201 226 219 204 200 204 200 203 200 196 187 187 191 197 191 187 189 209 225 234 220 206 215 228 227 240 251 252 252 246 238 232 234 229 219 198 191 190 209 217 224 229 232 234
199 199 205 212 208 219 216 211 203 205 215 220 233 235 226 231 237 236 237 236 236 227 219 221 220 220 210 201 197 197 184 188 196 199 205 208 206 201 198 198 191 200 204 209 211 208 210 205 200 198 198 203 195 195 194 187 186 185 196 214 220 220 217 210 208 213 222 230 241 250 252 248 243 227 225 221 217 216 209 181 201 216 231 235 238
204 205 216 219 223 232 230 243 219 206 211 222 219 225 223 214 216 225 235 229 225 225 224 217 209 210 214 211 204 197 193 193 195 197 202 205 203 202 198 189 189 188 199 206 206 204 206 207 206 192 194 205 205 195 181 179 191 196 202 209 211 218 223 219 215 222 225 230 237 240 249 256 253 249 238 227 218 220 220 224 192 207 217 227 229
233 216 208 220 222 222 213 235 242 219 196 205 215 208 212 227 228 216 218 217 220 220 222 218 213 211 210 212 212 205 201 198 201 199 204 203 200 194 196 196 186 187 193 204 205 207 209 212 212 200 194 196 207 198 191 164 174 221 204 211 225 224 228 215 224 225 225 227 228 231 229 231 233 238 237 231 227 223 219 221 219 202 208 215 220
253 270 255 221 213 216 217 233 245 250 226 206 208 212 205 202 204 219 219 216 217 217 225 224 223 220 221 221 218 218 217 215 206 202 201 200 199 198 198 201 195 196 200 199 202 207 211 211 214 228 210 199 203 195 194 149 197 201 194 227 231 227 224 218 221 226 224 222 223 226 226 228 226 225 226 229 227 218 213 220 227 230 223 216 211
20 28 11 2 352 348 307 257 251 245 260 254 230 229 238 238 218 228 213 232 229 220 223 222 218 217 219 224 219 217 221 228 222 207 201 197 197 199 202 200 200 195 195 200 202 208 209 208 203 208 206 212 209 200 194 185 197 189 206 234 229 226 258 237 233 229 223 223 220 224 225 227 230 227 226 230 225 215 211 213 222 221 225 226 216
47 31 19 14 6 3 0 355 341 316 286 277 270 259 248 257 271 259 268 242 227 244 227 217 215 212 216 216 216 214 214 221 226 221 203 203 201 202 200 202 203 196 196 204 205 209 206 206 205 207 195 204 207 210 194 192 191 148 215 208 204 181 282 225 220 232 222 225 219 223 217 226 227 230 230 237 229 219 211 209 222 221 218 217 211
46 42 29 15 5 353 348 348 340 337 326 312 299 296 304 303 290 294 302 311 306 288 289 255 224 221 223 218 222 217 218 219 220 218 206 209 210 208 204 205 205 199 197 203 207 209 206 204 201 201 201 203 206 202 206 197 199 195 177 134 170 221 226 232 186 253 202 219 224 223 223 229 235 235 234 241 231 222 216 217 216 213 215 212 203
38 30 19 11 4 354 350 348 339 330 323 319 314 308 284 264 269 249 260 261 258 260 251 245 244 229 227 225 226 221 221 221 220 220 216 208 213 214 212 208 209 211 204 203 207 209 212 209 204 203 208 209 203 197 211 212 206 205 208 199 158 170 175 245 151 279 276 226 220 215 216 220 223 227 228 227 219 221 215 232 239 242 227 213 211
25 15 7 2 358 349 351 339 325 319 318 317 320 320 299 276 254 243 230 225 231 240 232 240 243 247 231 223 223 219 221 222 223 221 217 212 213 214 217 217 215 212 210 211 213 214 213 211 204 206 209 205 202 209 204 198 201 218 215 221 233 213 150 139 225 288 318 306 234 223 230 222 220 221 222 222 224 226 233 228 238 237 227 211 205
19 9 3 1 352 346 341 332 321 319 318 314 317 319 310 293 275 265 253 250 246 249 249 245 242 238 245 241 225 221 220 221 225 226 224 219 215 216 216 218 220 217 207 211 216 218 219 216 212 213 208 204 204 213 211 195 196 207 202 212 222 230 216 193 176 178 183 264 288 304 304 239 221 220 214 220 221 224 232 235 236 229 216 205 187
33 20 11 359 346 341 344 342 338 334 325 330 331 323 315 308 299 282 267 256 250 251 257 264 268 263 254 243 234 230 224 222 222 224 224 225 221 220 217 219 217 218 213 212 213 215 216 215 213 215 214 210 209 211 212 208 199 200 189 211 207 215 220 227 218 189 223 228 254 216 243 297 274 252 230 220 220 217 219 227 231 228 216 210 201
43 27 20 11 344 349 343 345 337 340 328 329 327 320 313 311 302 294 285 279 277 278 254 247 249 254 259 255 247 239 230 229 226 226 227 224 225 224 223 222 221 219 216 217 210 210 212 214 213 212 212 212 207 208 211 209 200 198 196 191 199 197 207 220 223 225 234 222 244 228 206 212 233 247 222 226 224 222 218 226 234 224 211 213 206
31 20 14 5 353 348 337 345 331 334 334 330 329 318 316 312 299 289 286 284 279 268 271 274 266 248 244 249 247 245 237 233 226 229 229 226 226 224 226 228 228 226 222 219 220 218 214 211 208 205 206 206 204 204 207 213 207 197 192 189 194 191 192 194 205 206 214 224 229 244 234 202 211 248 249 220 224 221 217 220 228 228 219 218 211